DELTA 2 R/B(1) (20453 NORAD) Tracking and Keplerian Element Data

This shows tracking and keplerian element data for the satellite.

Feedback or suggestion? Click here.




ElementValue
Catalog20453
NameDELTA 2 R/B(1)
Epoch Orbit80590
Epoch Day12.60326977
Epoch Year2024
RAAN65.8063
Inclination35.6204
Eccentricity0.0221265
Argument of Perigee117.9282
Mean Anonmoly244.4026
Mean Motion15.03008625
Decay Rate0.00013233
L11 20453U 90008B 24012.60326977 .00013233 00000+0 55984-3 0 9995
L22 20453 35.6204 65.8063 0221265 117.9282 244.4026 15.03008625805906



Live tracking and technical data element details for DELTA 2 R/B(1) (NORAD 20453). DELTA 2 R/B(1) can be tracked NOW for your location showing map with azimuth and elevation plus other details from your city location.







IsCatalogInMostPopularTable: catalog: 20453, numindb: 369
Update: records affected: 1



GetName: 20453 DELTA 2 R/B(1)

Hit Count: updated at: Sun, 14 Apr 2024 23:44:04 GMT